This demonstration page uses our WeatherBlox Daily Observations layout. Learn more.

Left ArrowRight Arrow

Hourly Observations for June 3, 2015

Temp ( °F °C ) Dew Point ( °F °C ) Humidity (%) Winds ( mph kmh ) Pressure ( in mb ) Visibility ( mi km ) Precip ( " mm )
12:59 am 00:59 Cloudy with Mist and Fog 69 20.6 63 17.2 81 81 NE 12 19 30.06 1018 5 8 0.00 0.03
1:59 am 01:59 Cloudy 69 20.6 63 17.2 81 81 NNE 14 22 30.06 1018 10 16 0.00 0.00
2:59 am 02:59 Cloudy 69 20.6 63 17.2 81 81 NE 13 20 30.05 1018 10 16 0.00 0.00
3:59 am 03:59 Cloudy 68 20 63 17.2 84 84 NNE 16 26 30.05 1018 7 11 0.00 0.00
4:10 am 04:10 Cloudy with Mist and Fog 68 20 63 17.2 84 84 NNE 14 22 30.06 1018 4 6 0.00 0.00
4:45 am 04:45 Cloudy 69 20.6 63 17.2 81 81 NNE 15 24 30.06 1018 8 13 0.00 0.00
4:49 am 04:49 Cloudy 69 20.6 63 17.2 81 81 NNE 17 28 30.06 1018 7 11 0.00 0.00
4:59 am 04:59 Cloudy with Mist and Fog 69 20.6 63 17.2 81 81 NNE 18 30 30.04 1017 6 10 0.00 0.00
5:59 am 05:59 Cloudy with Drizzle 69 20.6 63 17.2 81 81 NE 14 22 30.06 1018 5 8 0.00 0.03
6:29 am 06:29 Cloudy 68 20 62 16.7 81 81 NE 14 22 30.06 1018 8 13 0.00 0.00
6:59 am 06:59 Cloudy 69 20.6 62 16.7 78 78 NE 15 24 30.06 1018 9 14 0.00 0.00
7:59 am 07:59 Cloudy 69 20.6 62 16.7 78 78 NE 17 28 30.08 1019 10 16 0.00 0.00
8:59 am 08:59 Cloudy 69 20.6 61 16.1 76 76 NE 17 28 30.11 1020 10 16 0.00 0.00
9:59 am 09:59 Cloudy 69 20.6 62 16.7 78 78 NNE 16 26 30.10 1019 10 16 0.00 0.00
10:59 am 10:59 Cloudy 70 21.1 62 16.7 76 76 NE 14 22 30.11 1020 10 16 0.00 0.00
11:59 am 11:59 Cloudy with Drizzle 70 21.1 63 17.2 79 79 NNE 13 20 30.12 1020 7 11 0.00 0.03
12:59 pm 12:59 Cloudy with Light Rain 69 20.6 63 17.2 81 81 NNE 16 26 30.12 1020 4 6 0.03 0.76
1:43 pm 13:43 Cloudy with Light Rain 70 21.1 64 17.8 82 82 NNE 17 28 30.12 1020 4 6 0.00 0.00
1:59 pm 13:59 Cloudy with Light Rain 69 20.6 63 17.2 81 81 NNE 17 28 30.10 1019 5 8 0.06 1.52
2:08 pm 14:08 Cloudy 69 20.6 63 17.2 81 81 NNE 17 28 30.12 1020 7 11 0.00 0.00
2:35 pm 14:35 Cloudy 69 20.6 63 17.2 81 81 NNE 16 26 30.09 1019 8 13 0.00 0.00
2:59 pm 14:59 Cloudy 69 20.6 63 17.2 81 81 NNE 16 26 30.11 1020 8 13 0.03 0.76
3:59 pm 15:59 Cloudy with Light Rain 70 21.1 63 17.2 79 79 NNE 18 30 30.09 1019 6 10 0.02 0.51
4:54 pm 16:54 Cloudy with Mist and Fog 72 22 63 17 73 73 NE 14 22 30.09 1019 6 10 0.02 0.51
4:59 pm 16:59 Cloudy with Mist and Fog 73 22.8 63 17.2 71 71 NE 15 24 30.09 1019 6 10 0.02 0.51
5:13 pm 17:13 Cloudy with Mist and Fog 69 20.6 63 17.2 81 81 NE 16 26 30.09 1019 5 8 0.00 0.00
5:59 pm 17:59 Cloudy with Mist and Fog 69 20.6 63 17.2 81 81 NE 14 22 30.08 1019 4 6 0.00 0.00
6:59 pm 18:59 Cloudy with Mist and Fog 70 21.1 64 17.8 82 82 NNE 14 22 30.08 1019 4 6 0.00 0.03
7:47 pm 19:47 Cloudy with Mist and Fog 69 20.6 64 17.8 84 84 NE 16 26 30.09 1019 2 3 0.00 0.00
7:59 pm 19:59 Cloudy with Light Rain 69 20.6 64 17.8 84 84 NE 14 22 30.09 1019 2 2 0.00 0.03
8:59 pm 20:59 Cloudy with Mist and Fog 69 20.6 64 17.8 84 84 NE 12 19 30.09 1019 3 5 0.03 0.76
9:48 pm 21:48 Cloudy with Light Rain 68 20 64 17.8 87 87 NE 16 26 30.12 1020 7 11 0.00 0.03
9:59 pm 21:59 Cloudy with Light Rain 69 20.6 64 17.8 84 84 NE 12 19 30.11 1020 7 11 0.02 0.51
10:42 pm 22:42 Cloudy with Mist and Fog 69 20.6 63 17.2 81 81 ENE 16 26 30.12 1020 5 8 0.00 0.03
10:59 pm 22:59 Cloudy with Mist and Fog 69 20.6 63 17.2 81 81 ENE 15 24 30.11 1020 5 8 0.02 0.51
11:59 pm 23:59 Cloudy with Mist and Fog 69 20.6 64 17.8 84 84 ENE 13 20 30.10 1019 3 5 0.00 0.00

Powered by AerisWeather